Weather History for Knoxville, TN

Change the Weather History Date:

Monday, September 5, 2011

  Actual Average Record
Temperature  
Mean Temperature 67 °F 75 °F  
Max Temperature 71 °F 85 °F 103 °F (1954)
Min Temperature 63 °F 64 °F 50 °F (2010)
Degree Days  
Heating Degree Days 0 0  
Month to date heating degree days 0 0  
Since 1 July heating degree days 0 0  
Cooling Degree Days 2 10  
Month to date cooling degree days 70 52  
Year to date cooling degree days 1753 1333  
Growing Degree Days 16 (Base 50)    
Moisture  
Dew Point 66 °F    
Average Humidity 94    
Maximum Humidity 100    
Minimum Humidity 87    
Precipitation  
Precipitation 5.49 in 0.09 in 5.49 in (2011)
Month to date precipitation 6.42 0.48  
Year to date precipitation 37.57 34.08  
Snow  
Snow 0.00 in 0.00 in - ()
Month to date snowfall 0.0 0.0  
Since 1 July snowfall 0.0 0.0  
Since 1 September snowfall 0.0 0.0  
Snow Depth 0.00 in    
Sea Level Pressure  
Sea Level Pressure 29.75 in    
Wind  
Wind Speed 9 mph (NE)    
Max Wind Speed 28 mph    
Max Gust Speed 38 mph    
Visibility 2 miles    
Events Rain    
T = Trace of Precipitation, MM = Missing Value Source: NWS Daily Summary

Daily Weather History Graph

Daily Weather History Graph

Search for Another Location

Airport:

Trip Planner

Search our weather history database for the weather conditions in past years. The results will help you decide how hot, cold, wet, or windy it might be!

Date:

Astronomy

Sep. 05, 2011 Rise Set
Actual Time 7:10 AM EDT 7:58 PM EDT
Civil Twilight 6:44 AM EDT 8:23 PM EDT
Nautical Twilight 6:14 AM EDT 8:54 PM EDT
Astronomical Twilight 5:42 AM EDT 9:26 PM EDT
Moon 3:33 PM EDT (9/5) 12:35 AM EDT (9/5)
Length of Visible Light 13h 39m
Length of Day
12h 47m
First Quarter, 60% of the Moon is Illuminated
Sep 5
First Quarter
Sep 12
Full
Sep 20
Last Quarter
Sep 27
New
Oct 3
First Quarter

Hourly Weather History & Observations

Time (EDT) Temp. Dew Point Humidity Pressure Visibility Wind Dir Wind Speed Gust Speed Precip Events Conditions
12:03 AM 71.6 °F 69.8 °F 94% 29.89 in 3.0 mi Calm Calm - 0.03 in Rain Light Rain
12:53 AM 71.1 °F 69.1 °F 93% 29.85 in 4.0 mi East 4.6 mph - 0.05 in Rain Light Rain
1:11 AM 69.8 °F 69.8 °F 100% 29.88 in 3.0 mi East 3.5 mph - 0.02 in Rain Light Rain
1:38 AM 69.8 °F 69.8 °F 100% 29.86 in 2.0 mi Calm Calm - 0.08 in Rain Light Rain
1:53 AM 70.0 °F 68.0 °F 93% 29.82 in 3.0 mi Calm Calm - 0.10 in Rain Light Rain
2:00 AM 69.8 °F 68.0 °F 94% 29.85 in 3.0 mi Calm Calm - 0.00 in Rain Light Rain
2:11 AM 69.8 °F 68.0 °F 94% 29.85 in 3.0 mi ENE 3.5 mph - 0.00 in Rain Light Rain
2:53 AM 70.0 °F 68.0 °F 93% 29.80 in 3.0 mi ENE 4.6 mph - 0.00 in   Overcast
3:00 AM 69.8 °F 68.0 °F 94% 29.83 in 3.0 mi East 3.5 mph - N/A   Overcast
3:12 AM 69.8 °F 68.0 °F 94% 29.83 in 2.5 mi East 3.5 mph - N/A   Overcast
3:19 AM 69.8 °F 68.0 °F 94% 29.83 in 3.0 mi East 3.5 mph - N/A   Overcast
3:53 AM 69.1 °F 68.0 °F 96% 29.78 in 3.0 mi ENE 3.5 mph - N/A   Overcast
4:00 AM 69.8 °F 68.0 °F 94% 29.81 in 3.0 mi ENE 4.6 mph - N/A   Overcast
4:52 AM 69.1 °F 68.0 °F 96% 29.75 in 3.0 mi NE 5.8 mph - 0.02 in Rain Light Rain
5:53 AM 69.1 °F 68.0 °F 96% 29.74 in 5.0 mi ENE 4.6 mph - 0.01 in Rain Light Rain
6:04 AM 69.8 °F 68.0 °F 94% 29.77 in 5.0 mi NE 6.9 mph - 0.00 in Rain Light Rain
6:53 AM 69.1 °F 68.0 °F 96% 29.74 in 3.0 mi Calm Calm - 0.08 in Rain Rain
7:00 AM 69.8 °F 68.0 °F 94% 29.77 in 3.0 mi Calm Calm - 0.02 in Rain Heavy Rain
7:06 AM 69.8 °F 68.0 °F 94% 29.76 in 2.5 mi Calm Calm - 0.05 in Rain Heavy Rain
7:15 AM 69.8 °F 68.0 °F 94% 29.76 in 2.0 mi Calm Calm - 0.09 in Rain Heavy Rain
7:23 AM 69.8 °F 68.0 °F 94% 29.77 in 1.0 mi Calm Calm - 0.13 in Rain Heavy Rain
7:30 AM 69.8 °F 68.0 °F 94% 29.76 in 0.8 mi Calm Calm - 0.19 in Rain Heavy Rain
7:53 AM 69.1 °F 68.0 °F 96% 29.73 in 1.5 mi North 4.6 mph - 0.35 in Rain Rain
8:00 AM 69.8 °F 68.0 °F 94% 29.76 in 2.0 mi NNE 4.6 mph - 0.02 in Rain Rain
8:07 AM 69.8 °F 68.0 °F 94% 29.76 in 1.5 mi NE 4.6 mph - 0.03 in Rain Rain
8:13 AM 69.8 °F 68.0 °F 94% 29.76 in 1.2 mi NE 4.6 mph - 0.05 in Rain Heavy Rain
8:26 AM 69.8 °F 68.0 °F 94% 29.75 in 1.2 mi ENE 4.6 mph - 0.11 in Rain Rain
8:34 AM 69.8 °F 68.0 °F 94% 29.75 in 2.0 mi NE 6.9 mph - 0.12 in Rain Light Rain
8:53 AM 70.0 °F 68.0 °F 93% 29.72 in 2.5 mi NNE 5.8 mph - 0.13 in Rain Light Rain
9:22 AM 69.8 °F 68.0 °F 94% 29.76 in 1.2 mi NE 3.5 mph - 0.05 in Rain Heavy Rain
9:28 AM 69.8 °F 68.0 °F 94% 29.74 in 1.0 mi NNE 6.9 mph - 0.10 in Rain Heavy Rain
9:53 AM 70.0 °F 68.0 °F 93% 29.71 in 2.0 mi NNE 8.1 mph - 0.25 in Rain Heavy Rain
10:34 AM 69.8 °F 68.0 °F 94% 29.74 in 1.2 mi NE 5.8 mph - 0.13 in Rain Heavy Rain
10:37 AM 69.8 °F 68.0 °F 94% 29.74 in 1.0 mi NE 5.8 mph - 0.15 in Rain Heavy Rain
10:53 AM 69.1 °F 68.0 °F 96% 29.71 in 0.8 mi NNE 8.1 mph - 0.33 in Rain Heavy Rain
11:00 AM 69.8 °F 68.0 °F 94% 29.73 in 0.8 mi NNE 9.2 mph - 0.15 in Rain Heavy Rain
11:04 AM 69.8 °F 68.0 °F 94% 29.73 in 1.2 mi NNE 9.2 mph - 0.19 in Rain Heavy Rain
11:36 AM 69.8 °F 68.0 °F 94% 29.75 in 1.0 mi NNW 6.9 mph - 0.45 in Rain Heavy Rain
11:47 AM 68.0 °F 66.2 °F 94% 29.75 in 2.5 mi NNE 11.5 mph - 0.68 in Rain Rain
11:55 AM 68.0 °F 66.2 °F 94% 29.74 in 3.0 mi North 10.4 mph - 0.01 in Rain Heavy Rain
12:03 PM 69.8 °F 66.2 °F 88% 29.72 in 4.0 mi NNE 17.3 mph - 0.02 in Rain Light Rain
12:14 PM 68.0 °F 66.2 °F 94% 29.73 in 2.0 mi NNE 11.5 mph - 0.04 in Rain Rain
12:37 PM 69.8 °F 66.2 °F 88% 29.75 in 3.0 mi WSW 6.9 mph 19.6 mph 0.21 in Rain Heavy Rain
12:53 PM 68.0 °F 66.0 °F 93% 29.71 in 4.0 mi NNW 9.2 mph - 0.27 in Rain Rain
1:30 PM 68.0 °F 66.2 °F 94% 29.73 in 1.0 mi North 13.8 mph - 0.08 in Rain Heavy Rain
1:53 PM 66.9 °F 64.9 °F 93% 29.70 in 0.8 mi North 10.4 mph - 0.32 in Rain Heavy Rain
1:58 PM 66.2 °F 64.4 °F 94% 29.74 in 1.0 mi NNW 8.1 mph - 0.06 in Rain Heavy Rain
2:06 PM 66.2 °F 66.2 °F 100% 29.72 in 1.5 mi North 13.8 mph - 0.15 in Rain Heavy Rain
2:27 PM 66.2 °F 66.2 °F 100% 29.71 in 1.5 mi NNE 11.5 mph - 0.24 in Rain Heavy Rain
2:53 PM 68.0 °F 66.0 °F 93% 29.70 in 1.5 mi NNE 9.2 mph - 0.40 in Rain Heavy Rain
3:04 PM 68.0 °F 66.2 °F 94% 29.71 in 1.5 mi North 8.1 mph - 0.04 in Rain Rain
3:19 PM 66.2 °F 64.4 °F 94% 29.74 in 1.0 mi NNE 8.1 mph - 0.15 in Rain Heavy Rain
3:53 PM 66.0 °F 63.0 °F 90% 29.69 in 1.5 mi North 17.3 mph 23.0 mph 0.51 in Rain Rain
4:00 PM - - N/A% - - North - - N/A   Unknown
4:03 PM 64.4 °F 62.6 °F 94% 29.70 in 2.0 mi NNE 20.7 mph 29.9 mph 0.06 in Rain Rain
4:08 PM 66.2 °F 62.6 °F 88% 29.70 in 2.0 mi North 23.0 mph 29.9 mph 0.07 in Rain Rain
4:24 PM 64.4 °F 62.6 °F 94% 29.71 in 1.2 mi North 16.1 mph 32.2 mph 0.16 in Rain Rain
4:38 PM 64.4 °F 62.6 °F 94% 29.70 in 2.0 mi North 13.8 mph 24.2 mph 0.29 in Rain Rain
4:53 PM 64.9 °F 63.0 °F 93% 29.68 in 1.5 mi NNE 15.0 mph 23.0 mph 0.37 in Rain Light Rain
5:16 PM 64.4 °F 62.6 °F 94% 29.72 in 1.0 mi NNE 16.1 mph 20.7 mph 0.11 in Rain Rain
5:41 PM 64.4 °F 62.6 °F 94% 29.74 in 1.5 mi NNE 11.5 mph - 0.28 in Rain Light Rain
5:53 PM 64.9 °F 63.0 °F 93% 29.73 in 1.5 mi NNE 10.4 mph - 0.35 in Rain Light Rain
6:13 PM 64.4 °F 62.6 °F 94% 29.76 in 1.5 mi NE 9.2 mph - 0.10 in Rain Light Rain
6:48 PM 64.9 °F 63.0 °F 93% 29.73 in 2.0 mi East 8.1 mph - 0.24 in Rain Light Rain
6:50 PM 64.4 °F 62.6 °F 94% 29.76 in 2.0 mi East 8.1 mph - 0.01 in Rain Light Rain
7:23 PM 64.4 °F 62.6 °F 94% 29.75 in 2.0 mi ENE 8.1 mph - 0.11 in Rain Light Rain
7:30 PM 64.4 °F 62.6 °F 94% 29.76 in 2.0 mi ENE 8.1 mph - 0.13 in Rain Light Rain
7:53 PM 64.0 °F 62.1 °F 93% 29.73 in 2.0 mi ENE 8.1 mph - 0.17 in Rain Light Rain
8:09 PM 64.4 °F 62.6 °F 94% 29.76 in 3.0 mi ENE 10.4 mph - 0.02 in Rain Light Rain
8:53 PM 64.0 °F 62.1 °F 93% 29.73 in 3.0 mi NNE 9.2 mph - 0.16 in Rain Light Rain
9:39 PM 62.6 °F 62.6 °F 100% 29.71 in 4.0 mi NE 12.7 mph - 0.10 in Rain Light Rain
9:53 PM 63.0 °F 61.0 °F 93% 29.69 in 4.0 mi NE 12.7 mph - 0.16 in Rain Light Rain
10:24 PM 62.6 °F 60.8 °F 94% 29.72 in 3.0 mi NNE 11.5 mph - 0.15 in Rain Light Rain
10:30 PM 62.6 °F 62.6 °F 100% 29.72 in 2.0 mi NE 12.7 mph - 0.17 in Rain Light Rain
10:43 PM 62.6 °F 62.6 °F 100% 29.71 in 3.0 mi NNE 15.0 mph - 0.21 in Rain Light Rain
10:53 PM 63.0 °F 62.1 °F 97% 29.66 in 4.0 mi NNE 17.3 mph - 0.22 in Rain Light Rain
11:11 PM 62.6 °F 62.6 °F 100% 29.67 in 5.0 mi NNE 18.4 mph 23.0 mph 0.02 in Rain Rain
11:53 PM 63.0 °F 61.0 °F 93% 29.64 in 5.0 mi NNE 16.1 mph - 0.08 in Rain Light Rain